Simultaneous Nadir Overpasses (SNOs) Predictions

Prediction of SNOs between AQUA and METOP-C Satellite Orbit:

Table of predicted SNOs for the next 14.0 days since TLE Epoch: 11/29/2019
Index Date (AQUA) Time (AQUA) Lat,Lon (AQUA) SZA (AQUA ) Date (METOP-C) Time (METOP-C) Lat,Lon (METOP-C) SZA (METOP-C ) Distance(km) Time Diff (sec)
1 12/01/2019 00:40:28 -73.17, -14.59 85.20 12/01/2019 00:39:22 -73.11, -17.20 85.22 84.12 66
2 12/01/2019 01:30:08 73.81, 151.67 95.47 12/01/2019 01:29:49 73.79, 151.67 95.45 2.45 19
3 12/01/2019 02:19:35 -73.89, -40.86 84.45 12/01/2019 02:20:28 -73.89, -40.77 84.46 2.90 53
4 12/03/2019 20:14:47 -73.46, 51.24 84.48 12/03/2019 20:13:37 -73.37, 49.77 84.55 47.63 70
5 12/03/2019 21:04:21 73.79,-141.84 95.87 12/03/2019 21:04:09 73.79,-141.91 95.88 2.08 12
6 12/03/2019 21:53:48 -73.88, 25.62 84.04 12/03/2019 21:54:48 -73.89, 25.65 84.03 1.93 60
7 12/06/2019 15:49:06 -73.71, 117.14 83.85 12/06/2019 15:47:53 -73.62, 116.76 83.93 15.77 73
8 12/06/2019 16:38:36 73.83, -75.49 96.28 12/06/2019 16:38:29 73.85, -75.38 96.29 3.68 7
9 12/06/2019 17:28:02 -73.86, 92.09 83.69 12/06/2019 17:29:09 -73.90, 92.07 83.66 3.48 67
10 12/09/2019 11:23:21 -73.76,-176.51 83.49 12/09/2019 11:22:11 -73.77,-176.47 83.47 2.17 70
11 12/09/2019 12:12:50 73.83, -9.03 96.59 12/09/2019 12:12:50 73.85, -8.96 96.61 3.07 0
12 12/09/2019 13:02:17 -73.91, 158.43 83.33 12/09/2019 13:03:30 -73.90, 158.49 83.35 2.32 73
13 12/12/2019 06:57:34 -73.76,-110.07 83.24 12/12/2019 06:56:31 -73.78,-110.05 83.22 2.26 63
14 12/12/2019 07:47:03 73.83, 57.41 96.84 12/12/2019 07:47:10 73.85, 57.45 96.86 2.65 7




NCC Satellite Simultaneous Nadir Overpasses (SNOs) Prediction Service
